Hourly Weather Roundup
Issued by NWS Central Illinois

Home | Current Version | Previous Version | Text Only | Print | Product List | Glossary On
Versions: 1 2 3 4 5 6 7 8 9 10 11 12 13 14 15 16 17 18 19 20 21 22 23 24 25 26 27 28 29 30 31 32 33 34 35 36 37 38 39 40 41 42 43 44 45 46 47 48 49 50
000
NZUS43 KILX 261910
HWRILX

AREA WEATHER ROUNDUP
NATIONAL WEATHER SERVICE, LINCOLN IL
200 PM CDT SUN APR 26 2015


CITY           SKY/WX    TMP DP  RH WIND       PRES   REMARKS
BLOOMINGTON    MOSUNNY   57  39  51 NE14G29   30.00S
CHAMPAIGN      SUNNY     56  38  50 NE16G23   29.96F
DECATUR        SUNNY     57  37  47 NE16G25   29.96F
EFFINGHAM      SUNNY     57  35  43 NW14G24   29.95S
FLORA          SUNNY     59  35  40 N12G17    29.92F
GALESBURG      SUNNY     57  33  39 E7G20     30.02S
JACKSONVILLE   SUNNY     60  35  40 N12G18    29.98F
LACON          SUNNY     55  35  45 CALM      30.01F
LAWRENCEVILLE  SUNNY     61  37  41 NE18      29.91S
LITCHFIELD     SUNNY     57  37  47 NE16G23   29.95F
$$


CITY           SKY/WX    TMP DP  RH WIND       PRES   REMARKS
LINCOLN        SUNNY     58  38  48 NE13G21   29.98S
MACOMB         SUNNY     58  37  45 E13G18    30.03F
MATTOON        SUNNY     56  37  49 N16G24    29.93F
MT CARMEL AP   SUNNY     61  30  31 N10       29.90S
OLNEY-NOBLE AP SUNNY     59  36  41 N14G20    29.92F
PARIS          SUNNY     57  38  49 NE9G17    29.94F
PEORIA         SUNNY     60  35  39 NE12G17   30.01S
PONTIAC        SUNNY     57  37  46 NE16      30.01S
RANTOUL        MOSUNNY   57  38  48 NE14G23   29.97S
ROBINSON       SUNNY     60  34  38 N10G21    29.91F
SPRINGFIELD    SUNNY     59  38  45 NE12G23   29.98F
TAYLORVILLE    SUNNY     57  36  44 N16G24    29.97S
$$

...REGIONAL REPORTS...


CITY           SKY/WX    TMP DP  RH WIND       PRES   REMARKS
CHICAGO O`HARE MOSUNNY   55  26  32 N17G23    30.01F
KANKAKEE       SUNNY     54  33  45 NE18      30.00F
MOLINE         SUNNY     59  33  37 E8G16     30.03F
MOUNT VERNON   SUNNY     61  34  36 NE10G16   29.92S
PITTSFIELD     SUNNY     59  35  40 N13G18    29.99S
QUINCY         SUNNY     59  34  39 NE14      29.99F
ROCKFORD       MOSUNNY   57  28  33 E3        30.05F
$$


CITY           SKY/WX    TMP DP  RH WIND       PRES   REMARKS
BURLINGTON     SUNNY     59  36  42 N12       30.02S
CEDAR RAPIDS   SUNNY     56  34  43 E9        30.04F
DES MOINES     MOSUNNY   62  26  25 NE15G21   30.05S
KIRKSVILLE     SUNNY     59  37  44 E12       30.01F
OTTUMWA        SUNNY     58  29  33 NE13      30.04S
ST LOUIS       MOSUNNY   62  37  39 NE7       29.96S
$$


CITY           SKY/WX    TMP DP  RH WIND       PRES   REMARKS
TERRE HAUTE    SUNNY     58  37  45 N9G17     29.92S
EVANSVILLE     SUNNY     61  36  39 N10       29.88F
INDIANAPOLIS   MOSUNNY   56  35  45 N15G21    29.90S
LAFAYETTE      MOSUNNY   55  34  45 N14G24    29.94F
MADISON        MOSUNNY   58  27  30 N14G20    30.05F
MILWAUKEE      MOSUNNY   47  32  56 NE13      30.05S
$$





USA.gov is the U.S. government's official web portal to all federal, state and local government web resources and services.